Phuket, Thailand

3:26 PM +07 on May 28, 2017 (GMT +0700)
Phuket International

Weather History for VTSP - May, 2014

Change the Weather History Date:

Wednesday, May 28, 2014

  Actual Average Record
Temperature  
Mean Temperature 80 °F -  
Max Temperature 89 °F 88 °F 100 °F (1999)
Min Temperature 72 °F 77 °F 68 °F (2012)
Cooling Degree Days 16    
Growing Degree Days 30 (Base 50)    
Moisture  
Dew Point 76 °F    
Average Humidity 79    
Maximum Humidity 94    
Minimum Humidity 57    
Precipitation  
Precipitation 0.02 in 0.38 in - ()
Sea Level Pressure  
Sea Level Pressure 29.83 in    
Wind  
Wind Speed 4 mph ()    
Max Wind Speed 14 mph    
Max Gust Speed -    
Visibility 5.2 miles    
Events Rain , Thunderstorm    
Averages and records for this station are not official NWS values.
T = Trace of Precipitation, MM = Missing Value Source: Averaged Metar Reports

Daily Weather History Graph

Daily Weather History Graph

Search for Another Location

Airport or City:

Trip Planner

Search our weather history database for the weather conditions in past years. The results will help you decide how hot, cold, wet, or windy it might be!

Date:

Astronomy

May. 28, 2014 Rise Set
Actual Time 6:07 AM +07 6:40 PM +07
Civil Twilight 5:44 AM +07 7:03 PM +07
Nautical Twilight 5:18 AM +07 7:29 PM +07
Astronomical Twilight 4:51 AM +07 7:56 PM +07
Moon 5:35 AM +07 6:21 PM +07
Length of Visible Light 13h 18m
Length of Day
12h 33m
Waning Crescent, 0% of the Moon is Illuminated
May 28
Waning Crescent
May 29
New
Jun 6
First Quarter
Jun 13
Full
Jun 20
Last Quarter

Hourly Weather History & Observations

Time (+07) Temp. Heat Index Dew Point Humidity Pressure Visibility Wind Dir Wind Speed Gust Speed Precip Events Conditions
12:00 AM 80.6 °F 87.1 °F 77.0 °F 89% 29.86 in 5.0 mi Variable 2.3 mph - N/A   Mostly Cloudy
12:30 AM 82.4 °F 89.5 °F 75.2 °F 79% 29.86 in 5.0 mi Variable 3.5 mph - N/A   Mostly Cloudy
1:00 AM 82 °F - 79 °F 87% 29.80 in 6 mi Calm Calm - -   Scattered Clouds
1:00 AM 80.6 °F 87.1 °F 77.0 °F 89% 29.86 in 5.0 mi SE 2.3 mph - N/A   Mostly Cloudy
1:30 AM 78.8 °F - 77.0 °F 94% 29.83 in 5.0 mi Variable 1.2 mph - N/A   Mostly Cloudy
2:00 AM 78.8 °F - 77.0 °F 94% 29.83 in 5.0 mi Calm Calm - N/A   Mostly Cloudy
2:30 AM 80.6 °F 87.1 °F 77.0 °F 89% 29.83 in 5.0 mi Variable 1.2 mph - N/A   Mostly Cloudy
3:00 AM 80.6 °F 87.1 °F 77.0 °F 89% 29.80 in 5.0 mi Variable 2.3 mph - N/A   Mostly Cloudy
3:30 AM 80.6 °F 87.1 °F 77.0 °F 89% 29.80 in 5.0 mi WNW 3.5 mph - N/A   Mostly Cloudy
4:00 AM 80 °F - 78 °F 91% 29.76 in 6 mi Calm Calm - -   Partly Cloudy
4:00 AM 78.8 °F - 75.2 °F 89% 29.80 in 5.0 mi Variable 2.3 mph - N/A   Mostly Cloudy
4:30 AM 78.8 °F - 75.2 °F 89% 29.80 in 5.0 mi Variable 1.2 mph - N/A   Mostly Cloudy
5:00 AM 78.8 °F - 75.2 °F 89% 29.83 in 5.0 mi Variable 2.3 mph - N/A   Mostly Cloudy
5:30 AM 78.8 °F - 75.2 °F 89% 29.83 in 5.0 mi Variable 1.2 mph - N/A   Mostly Cloudy
6:00 AM 77.0 °F - 75.2 °F 94% 29.83 in 5.0 mi Variable 1.2 mph - N/A Thunderstorm Thunderstorm
6:30 AM 78.8 °F - 75.2 °F 89% 29.86 in 1.2 mi WNW 5.8 mph - N/A Rain Rain
7:00 AM 78 °F - 76 °F 94% 29.82 in 3 mi Calm Calm - - Rain , Thunderstorm Thunderstorms and Rain
7:00 AM 77.0 °F - 73.4 °F 89% 29.86 in 1.9 mi SW 5.8 mph - N/A Rain Rain
7:30 AM 78.8 °F - 75.2 °F 89% 29.86 in 4.3 mi WSW 4.6 mph - N/A Rain Light Rain
8:00 AM 80.6 °F 87.1 °F 77.0 °F 89% 29.86 in 5.0 mi Variable 3.5 mph - N/A   Mostly Cloudy
8:30 AM 84.2 °F 94.1 °F 77.0 °F 79% 29.86 in 5.0 mi Variable 3.5 mph - N/A   Mostly Cloudy
9:00 AM 84.2 °F 92.3 °F 75.2 °F 74% 29.89 in 4.3 mi WNW 6.9 mph - N/A   Mostly Cloudy
9:30 AM 84.2 °F 92.3 °F 75.2 °F 74% 29.89 in 5.0 mi WNW 8.1 mph - N/A   Mostly Cloudy
10:00 AM 83 °F - 76 °F 73% 29.87 in 6 mi WSW 5.8 mph - -   Scattered Clouds
10:00 AM 86.0 °F 95.1 °F 75.2 °F 70% 29.89 in 5.0 mi West 10.4 mph - N/A   Mostly Cloudy
10:30 AM 86.0 °F 95.1 °F 75.2 °F 70% 29.89 in 5.0 mi West 9.2 mph - N/A   Mostly Cloudy
11:00 AM 86.0 °F 96.9 °F 77.0 °F 74% 29.89 in 5.6 mi WNW 8.1 mph - N/A   Mostly Cloudy
11:30 AM 86.0 °F 95.1 °F 75.2 °F 70% 29.86 in 5.6 mi NW 11.5 mph - N/A   Mostly Cloudy
12:00 PM 86.0 °F 96.9 °F 77.0 °F 74% 29.86 in 5.6 mi WNW 12.7 mph - N/A   Mostly Cloudy
12:30 PM 86.0 °F 95.1 °F 75.2 °F 70% 29.86 in 5.6 mi West 13.8 mph - N/A   Mostly Cloudy
1:00 PM 89 °F - 76 °F 57% 29.83 in 6 mi West 3.5 mph - -   Scattered Clouds
1:00 PM 87.8 °F 97.6 °F 75.2 °F 66% 29.86 in 5.6 mi West 12.7 mph - N/A   Mostly Cloudy
1:30 PM 87.8 °F 99.7 °F 77.0 °F 70% 29.83 in 5.6 mi WNW 12.7 mph - N/A   Mostly Cloudy
2:00 PM 86.0 °F 95.1 °F 75.2 °F 70% 29.83 in 5.6 mi WNW 12.7 mph - N/A   Mostly Cloudy
2:30 PM 86.0 °F 96.9 °F 77.0 °F 74% 29.80 in 5.6 mi West 10.4 mph - N/A   Mostly Cloudy
3:00 PM 86.0 °F 95.1 °F 75.2 °F 70% 29.80 in 5.6 mi NW 13.8 mph - N/A   Mostly Cloudy
3:30 PM 86.0 °F 95.1 °F 75.2 °F 70% 29.77 in 5.6 mi WNW 10.4 mph - N/A   Mostly Cloudy
4:00 PM 87 °F - 77 °F 66% 29.75 in 6 mi WNW 3.5 mph - -   Scattered Clouds
4:00 PM 86.0 °F 95.1 °F 75.2 °F 70% 29.77 in 5.6 mi WNW 12.7 mph - N/A   Mostly Cloudy
4:30 PM 86.0 °F 95.1 °F 75.2 °F 70% 29.77 in 5.6 mi WNW 10.4 mph - N/A   Mostly Cloudy
5:00 PM 84.2 °F 92.3 °F 75.2 °F 74% 29.77 in 5.6 mi WNW 8.1 mph - N/A   Mostly Cloudy
5:30 PM 84.2 °F 92.3 °F 75.2 °F 74% 29.77 in 5.6 mi WNW 11.5 mph - N/A   Mostly Cloudy
6:00 PM 84.2 °F 92.3 °F 75.2 °F 74% 29.77 in 5.6 mi WNW 9.2 mph - N/A   Mostly Cloudy
6:30 PM 84.2 °F 92.3 °F 75.2 °F 74% 29.77 in 5.6 mi WNW 9.2 mph - N/A   Mostly Cloudy
7:00 PM 85 °F - 77 °F 71% 29.75 in 6 mi Calm Calm - -   Scattered Clouds
7:00 PM 84.2 °F 92.3 °F 75.2 °F 74% 29.77 in 5.6 mi West 8.1 mph - N/A   Mostly Cloudy
7:30 PM 84.2 °F 92.3 °F 75.2 °F 74% 29.80 in 5.6 mi WNW 8.1 mph - N/A   Mostly Cloudy
8:00 PM 82.4 °F 89.5 °F 75.2 °F 79% 29.80 in 5.6 mi WNW 9.2 mph - N/A   Mostly Cloudy
8:30 PM 82.4 °F 88.2 °F 73.4 °F 74% 29.80 in 5.6 mi WNW 9.2 mph - N/A   Mostly Cloudy
9:00 PM 82.4 °F 89.5 °F 75.2 °F 79% 29.83 in 5.6 mi WNW 6.9 mph - N/A   Mostly Cloudy
9:30 PM 82.4 °F 89.5 °F 75.2 °F 79% 29.83 in 5.6 mi WNW 3.5 mph - N/A   Mostly Cloudy
10:00 PM 84 °F - 76 °F 71% 29.81 in 6 mi Calm Calm - -   Scattered Clouds
10:00 PM 82.4 °F 89.5 °F 75.2 °F 79% 29.83 in 5.6 mi NNW 3.5 mph - N/A   Mostly Cloudy
10:30 PM 82.4 °F 89.5 °F 75.2 °F 79% 29.86 in 5.6 mi NW 5.8 mph - N/A   Mostly Cloudy
11:00 PM 82.4 °F 89.5 °F 75.2 °F 79% 29.86 in 5.6 mi NNW 3.5 mph - N/A   Mostly Cloudy
11:30 PM 82.4 °F 88.2 °F 73.4 °F 74% 29.86 in 5.6 mi NW 4.6 mph - N/A   Mostly Cloudy